Regional Weather Roundup
Issued by NWS

Home | Current Version | Previous Version | Text Only | Print | Product List | Glossary On
Versions: 1 2 3 4 5 6 7 8 9 10 11 12 13 14 15 16 17 18 19 20 21 22 23 24 25 26 27 28 29 30 31 32 33 34 35 36 37 38 39 40 41 42 43 44 45 46 47 48 49 50
000
ASUS43 KLOT 221608
RWRIL

ILLINOIS REGIONAL WEATHER ROUNDUP
NATIONAL WEATHER SERVICE CHICAGO/ROMEOVILLE IL
1000 AM CST MON JAN 22 2018

NOTE: "FAIR" INDICATES FEW OR NO CLOUDS BELOW 12,000 FEET WITH NO
SIGNIFICANT WEATHER AND/OR OBSTRUCTIONS TO VISIBILITY.

* THESE STATIONS ARE NOT UNDER NWS QUALITY CONTROL. THEY ALSO MAY NOT
  REPORT WEATHER SUCH AS PRECIPITATION OR FOG.

ILZ001-002-007-009-015-016-024-221700-
NORTHWEST ILLINOIS

CITY           SKY/WX    TMP DP  RH WIND       PRES   REMARKS
MOLINE         LGT RAIN  51  50  96 S9        29.47S FOG
STERLING*        N/A    N/A N/A N/A MISG        N/A
SAVANNA*       CLOUDY    41  41  99 E7        29.50F
$$

ILZ003-004-008-010-011-017-018-221700-
NORTH CENTRAL ILLINOIS

CITY           SKY/WX    TMP DP  RH WIND       PRES   REMARKS
ROCKFORD       DRZL/FOG  43  42  97 E5        29.55F VSB 1
FREEPORT*      CLOUDY    38  38 100 NE8       29.54F FOG     WCI  32
ROCHELLE*      CLOUDY    49  49 100 S14       29.54R FOG
DE KALB*       LGT RAIN  48  48 100 S16       29.55S VSB 1
PERU*          CLOUDY    50  49  96 S16       29.55S
$$

ILZ005-006-012>014-019>023-221700-
NORTHEAST ILLINOIS

CITY           SKY/WX    TMP DP  RH WIND       PRES   REMARKS
CHICAGO-OHARE  CLOUDY    51  47  86 S16       29.57S
CHICAGO-MIDWAY CLOUDY    52  51  97 S17G31    29.58S
AURORA         CLOUDY    49  48  97 S14       29.56S
LANSING*       CLOUDY    51  49  95 S16G25    29.62S
JOLIET*        CLOUDY    51  50  95 S17G24    29.59S
WAUKEGAN       LGT RAIN  43  43 100 SE10      29.57S VSB 3/4
DUPAGE AIRPORT CLOUDY    49  49 100 S18G28    29.56S
KANKAKEE*      CLOUDY   N/A N/A N/A S21G30    29.62S
WHEELING       CLOUDY    51  49  92 S16       29.58S
MORRIS*        CLOUDY    50  49  98 S22       29.56F
ROMEOVILLE*    CLOUDY    50  48  93 S22G29    29.58F
NORTHERLY ISL    N/A     50  47  89 S13         N/A
$$

LMZ740>746-221700-
SOUTHERN LAKE MICHIGAN

STATION/POSITION SKY/WX   TEMP    WIND        PRES    VSBY  WAVE
                          AIR SEA DIR/SP/G                  HT/PER
                          (F)     (DEG/KT/KT) (MB)    (MI)  (FT/S)
HARRISON CRIB              48     190/ 23/ 24   N/A
BURNHAM HARBOR             51     190/ 10/ 20   N/A
CALUMET HARBOR             51     170/ 16/ 25 1001.7F
BURNS HARBOR               51     190/ 19/ 26 1003.7R
MICHIGAN CITY              51     170/ 20/ 26   N/A
$$

ILZ025>027-034>036-040-047-049-050-058-095>099-221700-
WEST-CENTRAL ILLINOIS

CITY           SKY/WX    TMP DP  RH WIND       PRES   REMARKS
QUINCY         SUNNY     54  47  77 S21G28    29.49F
GALESBURG*     CLOUDY    53  53 100 S10G22    29.50F
MACOMB*        PTSUNNY   54  53  97 S14       29.51F
JACKSONVILLE*  CLOUDY    55  51  86 S16G26    29.54F
PITTSFIELD*    MOSUNNY   56  51  84 S18G24    29.53S
$$

ILZ028>032-037-038-041>044-048-051>054-059>061-221700-
CENTRAL ILLINOIS

CITY           SKY/WX    TMP DP  RH WIND       PRES   REMARKS
PONTIAC        CLOUDY    51  51  98 S21G26    29.57F
BLOOMINGTON    CLOUDY    51  49  92 S25       29.57F
DECATUR        CLOUDY    52  52 100 S21G33    29.59F
PEORIA         CLOUDY    52  50  93 S15       29.54S FOG
LACON*         CLOUDY    51  51  99 S16G25    29.53R
LINCOLN*       CLOUDY    53  53  99 S21G28    29.57R
SPRINGFIELD    CLOUDY    54  53  97 S20G29    29.56S
TAYLORVILLE    LGT RAIN  52  51  98 S21G26    29.60R
$$

ILZ033-039-045-046-055>057-062-063-221700-
EAST-CENTRAL ILLINOIS

CITY           SKY/WX    TMP DP  RH WIND       PRES   REMARKS
CHAMPAIGN      CLOUDY    51  50  96 S25G35    29.61F
DANVILLE*      CLOUDY    51  49  93 S28G36    29.63F
RANTOUL*       CLOUDY    52  51  96 S23G32    29.62F
MATTOON        CLOUDY    51  49  92 S22G31    29.64F
PARIS*         CLOUDY    52  49  92 S33G41    29.68F
$$

ILZ079-100>102-221700-
SOUTHWEST ILLINOIS

CITY           SKY/WX    TMP DP  RH WIND       PRES   REMARKS
ALTON          PTSUNNY   55  54  94 S15G21    29.59F
BELLEVILLE     FAIR      57  53  86 S20       29.60S
CAHOKIA*       FAIR      58  50  75 S9G26     29.59F
SPARTA*        CLOUDY    53  51  94 S18       29.66S
$$

ILZ064>066-069>071-074>076-080>082-084>086-088>090-092>094-221700-
SOUTH-CENTRAL ILLINOIS

CITY           SKY/WX    TMP DP  RH WIND       PRES   REMARKS
CARBONDALE     PTSUNNY   55  52  89 S21G32    29.68F
CAIRO*         CLOUDY    54  51  92 S13       29.74R
EFFINGHAM*     CLOUDY    53  52  95 SE16G23   29.67F
MARION         CLOUDY    52  52 100 S21       29.72R
MT. VERNON     CLOUDY    54  50  86 S21G28    29.68S
CENTRALIA*     CLOUDY    54  52  94 S22G28    29.64F
SALEM*         CLOUDY    55  51  86 S16G28    29.65F
METROPOLIS*    CLOUDY    54  50  88 S10G23    29.76R
$$

ILZ067-068-072-073-078-083-087-091-221700-
SOUTHEAST ILLINOIS

CITY           SKY/WX    TMP DP  RH WIND       PRES   REMARKS
LAWRENCEVILLE  CLOUDY    52  49  89 S24       29.72F
FLORA*         CLOUDY    54  51  89 S18G28    29.69S
FAIRFIELD*     CLOUDY    53  51  94 S14G21    29.70R
HARRISBURG*    CLOUDY    54  51  89 S21G28    29.73S
ROBINSON*      CLOUDY    51  49  92 S23G32    29.71F
CARMI*         CLOUDY    52  49  92 S20G29    29.72F
$$

ABBREVIATIONS USED IN REMARKS
   TC - TEMPERATURE IN CELSIUS
  WCI - WIND CHILL INDEX
   HX - HEAT INDEX
  VSB - VISIBILITY
$$





USA.gov is the U.S. government's official web portal to all federal, state and local government web resources and services.